When you browse on this site, cookies collect data to enhance your experience and personalize the content and advertising you see.
Visit our Privacy Policy to learn more. By continuing to use the site, you agree to this use of cookies and data.
  • In Österreich
  • Länderverzeichnis
  • Für 7 Tage
  • Wassertemperatur
  • Wetterkarte
  • News
  • Widgets
  • user-avatar
    Anmelden

    Stündliche Wetter Huichapan

    Heute, 14 Dezember, Samstag

    Zeit Temperatur Niederschläge Wind Luftdruck Luftfeuchtigkeit
    00:00 +13°C° 0 mm 1 m/S 594 mmHg 71%
    01:00 +12°C° 0 mm 1 m/S 593 mmHg 73%
    02:00 +12°C° 0 mm 1 m/S 593 mmHg 75%
    03:00 +11°C° 0 mm 1 m/S 593 mmHg 75%
    04:00 +11°C° 0 mm 1 m/S 592 mmHg 75%
    05:00 +11°C° 0 mm 1 m/S 592 mmHg 75%
    06:00 +12°C° 0 mm 1 m/S 593 mmHg 66%
    07:00 +14°C° 0 mm 1 m/S 594 mmHg 58%
    08:00 +16°C° 0 mm 1 m/S 595 mmHg 49%
    09:00 +18°C° 0 mm 1 m/S 596 mmHg 41%
    10:00 +20°C° 0 mm 1 m/S 596 mmHg 33%
    11:00 +22°C° 0 mm 1 m/S 596 mmHg 24%
    12:00 +21°C° 0 mm 2 m/S 596 mmHg 23%
    13:00 +23°C° 0 mm 2 m/S 595 mmHg 21%
    14:00 +24°C° 0 mm 2 m/S 595 mmHg 19%
    15:00 +21°C° 0 mm 2 m/S 594 mmHg 22%
    16:00 +20°C° 0 mm 2 m/S 594 mmHg 26%
    17:00 +18°C° 0 mm 2 m/S 593 mmHg 29%
    18:00 +18°C° 0 mm 1 m/S 593 mmHg 31%
    19:00 +16°C° 0 mm 1 m/S 593 mmHg 34%
    20:00 +15°C° 0 mm 1 m/S 594 mmHg 36%
    21:00 +15°C° 0 mm 1 m/S 593 mmHg 38%
    22:00 +14°C° 0 mm 1 m/S 593 mmHg 39%
    23:00 +14°C° 0 mm 1 m/S 593 mmHg 41%

    Morgen, 15 Dezember, Sonntag

    Zeit Temperatur Niederschläge Wind Luftdruck Luftfeuchtigkeit
    00:00 +13°C° 0 mm 1 m/S 593 mmHg 41%
    01:00 +13°C° 0 mm 1 m/S 592 mmHg 42%
    02:00 +12°C° 0 mm 2 m/S 592 mmHg 42%
    03:00 +12°C° 0 mm 2 m/S 592 mmHg 43%
    04:00 +12°C° 0 mm 2 m/S 592 mmHg 45%
    05:00 +10°C° 0 mm 2 m/S 592 mmHg 46%
    06:00 +13°C° 0 mm 1 m/S 593 mmHg 43%
    07:00 +15°C° 0 mm 1 m/S 594 mmHg 39%
    08:00 +16°C° 0 mm 1 m/S 595 mmHg 36%
    09:00 +18°C° 0 mm 2 m/S 596 mmHg 32%
    10:00 +20°C° 0 mm 2 m/S 596 mmHg 28%
    11:00 +21°C° 0 mm 3 m/S 596 mmHg 24%
    12:00 +22°C° 0 mm 3 m/S 596 mmHg 23%
    13:00 +24°C° 0 mm 3 m/S 595 mmHg 21%
    14:00 +24°C° 0 mm 3 m/S 595 mmHg 20%
    15:00 +22°C° 0 mm 3 m/S 594 mmHg 24%
    16:00 +21°C° 0 mm 2 m/S 594 mmHg 27%
    17:00 +19°C° 0 mm 2 m/S 593 mmHg 31%
    18:00 +18°C° 0 mm 2 m/S 593 mmHg 34%
    19:00 +17°C° 0 mm 2 m/S 594 mmHg 37%
    20:00 +16°C° 0 mm 1 m/S 594 mmHg 40%
    21:00 +16°C° 0 mm 2 m/S 594 mmHg 44%
    22:00 +15°C° 0 mm 2 m/S 594 mmHg 48%
    23:00 +15°C° 0 mm 2 m/S 593 mmHg 51%

    übermorgen, 16 Dezember, Montag

    Zeit Temperatur Niederschläge Wind Luftdruck Luftfeuchtigkeit
    00:00 +14°C° 0 mm 2 m/S 593 mmHg 53%
    01:00 +13°C° 0 mm 2 m/S 593 mmHg 54%
    02:00 +13°C° 0 mm 2 m/S 592 mmHg 55%
    03:00 +12°C° 0 mm 2 m/S 592 mmHg 56%
    04:00 +12°C° 0 mm 2 m/S 592 mmHg 57%
    05:00 +11°C° 0 mm 1 m/S 592 mmHg 57%
    06:00 +13°C° 0 mm 1 m/S 593 mmHg 53%
    07:00 +14°C° 0 mm 1 m/S 594 mmHg 49%
    08:00 +16°C° 0 mm 1 m/S 595 mmHg 45%
    09:00 +17°C° 0 mm 2 m/S 595 mmHg 40%
    10:00 +19°C° 0 mm 2 m/S 595 mmHg 36%
    11:00 +20°C° 0 mm 3 m/S 596 mmHg 31%
    12:00 +21°C° 0 mm 3 m/S 595 mmHg 29%
    13:00 +22°C° 0 mm 4 m/S 595 mmHg 26%
    14:00 +23°C° 0 mm 4 m/S 595 mmHg 24%
    15:00 +22°C° 0 mm 4 m/S 594 mmHg 27%
    16:00 +20°C° 0 mm 4 m/S 594 mmHg 31%
    17:00 +19°C° 0 mm 3 m/S 594 mmHg 34%
    18:00 +18°C° 0 mm 2 m/S 594 mmHg 37%
    19:00 +18°C° 0 mm 1 m/S 594 mmHg 40%
    20:00 +14°C° 0 mm 0 m/S 594 mmHg 43%
    21:00 +15°C° 0 mm 1 m/S 594 mmHg 46%
    22:00 +14°C° 0 mm 1 m/S 594 mmHg 49%
    23:00 +14°C° 0 mm 1 m/S 594 mmHg 52%

    17 Dezember, Dienstag

    Zeit Temperatur Niederschläge Wind Luftdruck Luftfeuchtigkeit
    00:00 +13°C° 0 mm 1 m/S 594 mmHg 56%
    01:00 +13°C° 0 mm 1 m/S 593 mmHg 61%
    02:00 +12°C° 0 mm 1 m/S 593 mmHg 65%
    03:00 +12°C° 0 mm 1 m/S 593 mmHg 67%
    04:00 +11°C° 0 mm 1 m/S 593 mmHg 70%
    05:00 +11°C° 0 mm 1 m/S 593 mmHg 72%
    06:00 +10°C° 0 mm 2 m/S 594 mmHg 70%
    07:00 +12°C° 0 mm 2 m/S 594 mmHg 68%
    08:00 +13°C° 0 mm 2 m/S 595 mmHg 66%
    09:00 +13°C° 0 mm 3 m/S 595 mmHg 61%
    10:00 +16°C° 0 mm 3 m/S 596 mmHg 56%
    11:00 +17°C° 0 mm 4 m/S 596 mmHg 51%
    12:00 +18°C° 0 mm 4 m/S 596 mmHg 50%
    13:00 +19°C° 0 mm 4 m/S 596 mmHg 50%
    14:00 +19°C° 0 mm 5 m/S 595 mmHg 49%
    15:00 +16°C° 0 mm 5 m/S 595 mmHg 59%
    16:00 +14°C° 0 mm 4 m/S 594 mmHg 69%
    17:00 +12°C° 0 mm 4 m/S 594 mmHg 79%
    18:00 +12°C° 0 mm 4 m/S 594 mmHg 79%
    19:00 +11°C° 0 mm 4 m/S 595 mmHg 80%
    20:00 +11°C° 0 mm 3 m/S 595 mmHg 81%
    21:00 +10°C° 0 mm 3 m/S 595 mmHg 80%
    22:00 +10°C° 0 mm 3 m/S 595 mmHg 80%
    23:00 +9°C° 0 mm 3 m/S 595 mmHg 80%

    18 Dezember, Mittwoch

    Zeit Temperatur Niederschläge Wind Luftdruck Luftfeuchtigkeit
    00:00 +9°C° 0 mm 3 m/S 595 mmHg 80%
    01:00 +8°C° 0 mm 3 m/S 595 mmHg 80%
    02:00 +8°C° 0 mm 3 m/S 594 mmHg 80%
    03:00 +7°C° 0 mm 3 m/S 594 mmHg 81%
    04:00 +7°C° 0 mm 2 m/S 594 mmHg 82%
    05:00 +7°C° 0 mm 2 m/S 594 mmHg 83%
    06:00 +7°C° 0 mm 2 m/S 595 mmHg 82%
    07:00 +7°C° 0 mm 2 m/S 595 mmHg 81%
    08:00 +7°C° 0 mm 2 m/S 596 mmHg 79%
    09:00 +9°C° 0 mm 3 m/S 596 mmHg 74%
    10:00 +10°C° 0 mm 3 m/S 596 mmHg 69%
    11:00 +11°C° 0 mm 4 m/S 596 mmHg 64%
    12:00 +12°C° 0 mm 4 m/S 596 mmHg 62%
    13:00 +12°C° 0 mm 4 m/S 596 mmHg 59%
    14:00 +13°C° 0 mm 4 m/S 595 mmHg 57%
    15:00 +12°C° 0 mm 4 m/S 595 mmHg 60%
    16:00 +10°C° 0 mm 4 m/S 594 mmHg 64%
    17:00 +8°C° 0 mm 4 m/S 594 mmHg 67%
    18:00 +8°C° 0 mm 3 m/S 594 mmHg 70%
    19:00 +7°C° 0 mm 3 m/S 594 mmHg 73%
    20:00 +6°C° 0 mm 2 m/S 594 mmHg 76%
    21:00 +6°C° 0 mm 2 m/S 594 mmHg 78%
    22:00 +6°C° 0 mm 2 m/S 594 mmHg 80%
    23:00 +5°C° 0 mm 2 m/S 594 mmHg 82%

    19 Dezember, Donnerstag

    Zeit Temperatur Niederschläge Wind Luftdruck Luftfeuchtigkeit
    00:00 +5°C° 0 mm 2 m/S 594 mmHg 83%
    01:00 +6°C° 0 mm 2 m/S 593 mmHg 84%
    02:00 +7°C° 0 mm 1 m/S 593 mmHg 85%
    03:00 +7°C° 0 mm 1 m/S 593 mmHg 86%
    04:00 +7°C° 0 mm 1 m/S 593 mmHg 87%
    05:00 +7°C° 0 mm 1 m/S 593 mmHg 88%
    06:00 +8°C° 0 mm 1 m/S 594 mmHg 83%
    07:00 +9°C° 0 mm 1 m/S 595 mmHg 78%
    08:00 +10°C° 0 mm 1 m/S 595 mmHg 74%
    09:00 +13°C° 0 mm 1 m/S 596 mmHg 66%
    10:00 +15°C° 0 mm 1 m/S 596 mmHg 58%
    11:00 +17°C° 0 mm 2 m/S 597 mmHg 50%
    12:00 +18°C° 0 mm 2 m/S 596 mmHg 46%
    13:00 +19°C° 0 mm 3 m/S 596 mmHg 41%
    14:00 +21°C° 0 mm 3 m/S 596 mmHg 37%
    15:00 +20°C° 0 mm 3 m/S 596 mmHg 40%
    16:00 +19°C° 0 mm 2 m/S 595 mmHg 42%
    17:00 +17°C° 0 mm 2 m/S 595 mmHg 44%
    18:00 +16°C° 0 mm 2 m/S 595 mmHg 50%
    19:00 +15°C° 0 mm 1 m/S 595 mmHg 56%
    20:00 +14°C° 0 mm 1 m/S 595 mmHg 61%
    21:00 +14°C° 0 mm 1 m/S 595 mmHg 63%
    22:00 +13°C° 0 mm 1 m/S 595 mmHg 64%
    23:00 +12°C° 0 mm 0 m/S 595 mmHg 65%
    Mehr zeigen